Time,TemperatureF,DewpointF,PressureIn,WindDirection,WindDirectionDegrees,WindSpeedMPH,WindSpeedGustMPH,Humidity,HourlyPrecipIn,Conditions,Clouds,dailyrainin,SoftwareType,DateUTC
2013-05-04 00:01:00,40.5,32.9,29.05,NNE,23,3.8,10.3,74,0.00,,,0.00,WUHU216HW,2013-05-04 05:01:00,
2013-05-04 00:06:00,40.5,33.1,29.05,NE,45,5.1,8.9,75,0.00,,,0.00,WUHU216HW,2013-05-04 05:06:00,
2013-05-04 00:11:00,40.3,32.9,29.05,NNE,23,4.0,9.2,75,0.00,,,0.00,WUHU216HW,2013-05-04 05:11:00,
2013-05-04 00:16:00,40.3,33.7,29.05,North,0,9.2,9.2,77,0.00,,,0.00,WUHU216HW,2013-05-04 05:16:00,
2013-05-04 00:21:00,40.1,33.5,29.05,NE,45,6.0,15.7,77,0.00,,,0.00,WUHU216HW,2013-05-04 05:21:00,
2013-05-04 00:26:00,40.0,33.7,29.05,North,0,11.9,15.7,78,0.00,,,0.00,WUHU216HW,2013-05-04 05:26:00,
2013-05-04 00:31:00,40.0,33.7,29.04,NNE,23,12.3,12.3,78,0.00,,,0.00,WUHU216HW,2013-05-04 05:31:00,
2013-05-04 00:36:00,40.0,33.3,29.04,NNE,23,7.6,12.3,77,0.00,,,0.00,WUHU216HW,2013-05-04 05:36:00,
2013-05-04 00:41:00,40.0,33.7,29.04,NNE,23,6.5,10.7,78,0.00,,,0.00,WUHU216HW,2013-05-04 05:41:00,
2013-05-04 00:46:00,40.0,33.7,29.04,NNW,338,9.4,11.9,78,0.00,,,0.00,WUHU216HW,2013-05-04 05:46:00,
2013-05-04 00:51:00,40.0,33.7,29.04,North,0,14.1,14.1,78,0.00,,,0.00,WUHU216HW,2013-05-04 05:51:00,
2013-05-04 00:56:00,40.0,33.7,29.03,NNW,338,9.4,14.1,78,0.00,,,0.00,WUHU216HW,2013-05-04 05:56:00,
2013-05-04 01:01:00,40.0,33.9,29.03,North,0,12.1,13.6,79,0.00,,,0.00,WUHU216HW,2013-05-04 06:01:00,
2013-05-04 01:06:00,39.8,33.5,29.02,NNW,338,12.8,15.7,78,0.00,,,0.00,WUHU216HW,2013-05-04 06:06:00,
2013-05-04 01:11:00,39.8,33.9,29.02,North,0,12.1,15.7,79,0.00,,,0.00,WUHU216HW,2013-05-04 06:11:00,
2013-05-04 01:16:00,39.8,33.9,29.02,NNW,338,8.1,13.9,79,0.00,,,0.00,WUHU216HW,2013-05-04 06:16:00,
2013-05-04 01:21:00,39.8,33.9,29.03,North,0,7.4,12.5,79,0.00,,,0.00,WUHU216HW,2013-05-04 06:21:00,
2013-05-04 01:26:00,39.6,33.7,29.03,NNW,338,8.5,11.4,79,0.00,,,0.00,WUHU216HW,2013-05-04 06:26:00,
2013-05-04 01:31:00,39.6,33.7,29.02,NNE,23,7.8,11.4,79,0.00,,,0.00,WUHU216HW,2013-05-04 06:31:00,
2013-05-04 01:36:00,39.6,33.7,29.02,NNW,338,10.7,15.0,79,0.00,,,0.00,WUHU216HW,2013-05-04 06:36:00,
2013-05-04 01:41:00,39.6,33.3,29.02,North,0,13.4,15.0,78,0.00,,,0.00,WUHU216HW,2013-05-04 06:41:00,
2013-05-04 01:46:00,39.6,32.9,29.02,North,0,18.1,18.1,77,0.00,,,0.00,WUHU216HW,2013-05-04 06:46:00,
2013-05-04 01:51:00,39.4,32.8,29.02,NNE,23,9.6,18.1,77,0.00,,,0.00,WUHU216HW,2013-05-04 06:51:00,
2013-05-04 01:56:00,39.4,32.8,29.02,NNW,338,9.8,17.2,77,0.00,,,0.00,WUHU216HW,2013-05-04 06:56:00,
2013-05-04 02:01:00,39.4,32.8,29.02,North,0,17.2,17.4,77,0.00,,,0.00,WUHU216HW,2013-05-04 07:01:00,
2013-05-04 02:06:00,39.4,32.8,29.02,North,0,15.9,17.4,77,0.00,,,0.00,WUHU216HW,2013-05-04 07:06:00,
2013-05-04 02:11:00,39.2,32.7,29.02,North,0,12.8,17.4,77,0.00,,,0.00,WUHU216HW,2013-05-04 07:11:00,
2013-05-04 02:16:00,39.2,32.7,29.02,North,0,17.2,18.6,77,0.00,,,0.00,WUHU216HW,2013-05-04 07:16:00,
2013-05-04 02:21:00,39.2,32.7,29.01,NNE,23,15.7,18.6,77,0.00,,,0.00,WUHU216HW,2013-05-04 07:21:00,
2013-05-04 02:26:00,39.2,32.7,29.01,North,0,11.6,20.4,77,0.00,,,0.00,WUHU216HW,2013-05-04 07:26:00,
2013-05-04 02:31:00,39.2,32.9,29.01,North,0,6.9,20.4,78,0.00,,,0.00,WUHU216HW,2013-05-04 07:31:00,
2013-05-04 02:36:00,39.1,32.5,29.00,North,0,12.1,12.5,77,0.00,,,0.00,WUHU216HW,2013-05-04 07:36:00,
2013-05-04 02:41:00,38.9,32.3,29.01,NNE,23,12.1,17.7,77,0.00,,,0.00,WUHU216HW,2013-05-04 07:41:00,
2013-05-04 02:46:00,38.9,32.3,29.01,NNW,338,8.3,18.6,77,0.00,,,0.00,WUHU216HW,2013-05-04 07:46:00,
2013-05-04 02:51:00,38.7,32.1,29.00,NNW,338,11.0,18.6,77,0.00,,,0.00,WUHU216HW,2013-05-04 07:51:00,
2013-05-04 02:56:00,38.7,32.1,29.00,North,0,15.0,15.9,77,0.00,,,0.00,WUHU216HW,2013-05-04 07:56:00,
2013-05-04 03:01:00,38.5,32.0,29.00,NNE,23,17.9,17.9,77,0.00,,,0.00,WUHU216HW,2013-05-04 08:01:00,
2013-05-04 03:06:00,38.5,32.0,29.00,North,0,16.3,19.7,77,0.00,,,0.00,WUHU216HW,2013-05-04 08:06:00,
2013-05-04 03:11:00,38.5,32.0,29.00,NNE,23,22.8,22.8,77,0.00,,,0.00,WUHU216HW,2013-05-04 08:11:00,
2013-05-04 03:16:00,38.3,31.4,29.01,North,0,17.9,22.8,76,0.00,,,0.00,WUHU216HW,2013-05-04 08:16:00,
2013-05-04 03:21:00,38.2,31.2,29.00,NNE,23,15.0,25.3,76,0.00,,,0.00,WUHU216HW,2013-05-04 08:21:00,
2013-05-04 03:26:00,38.0,31.8,29.00,North,0,18.3,25.3,78,0.00,,,0.00,WUHU216HW,2013-05-04 08:26:00,
2013-05-04 03:31:00,37.8,31.6,29.00,NNW,338,15.2,18.3,78,0.00,,,0.00,WUHU216HW,2013-05-04 08:31:00,
2013-05-04 03:36:00,37.8,31.9,29.00,NNW,338,17.4,17.4,79,0.00,,,0.00,WUHU216HW,2013-05-04 08:36:00,
2013-05-04 03:41:00,37.8,32.2,29.00,NNW,338,11.6,17.7,80,0.00,,,0.00,WUHU216HW,2013-05-04 08:41:00,
2013-05-04 03:46:00,37.6,32.0,29.00,NNW,338,12.3,19.9,80,0.00,,,0.00,WUHU216HW,2013-05-04 08:46:00,
2013-05-04 03:51:00,37.4,31.9,29.00,NNW,338,15.7,19.9,80,0.00,,,0.00,WUHU216HW,2013-05-04 08:51:00,
2013-05-04 03:56:00,37.4,31.9,29.00,North,0,11.9,23.0,80,0.00,,,0.00,WUHU216HW,2013-05-04 08:56:00,
2013-05-04 04:01:00,37.4,32.1,29.00,North,0,15.7,23.0,81,0.00,,,0.00,WUHU216HW,2013-05-04 09:01:00,
2013-05-04 04:06:00,37.3,32.2,29.00,NW,315,14.3,21.9,82,0.00,,,0.00,WUHU216HW,2013-05-04 09:06:00,
2013-05-04 04:11:00,37.1,32.4,29.00,North,0,6.9,21.9,83,0.00,,,0.00,WUHU216HW,2013-05-04 09:11:00,
2013-05-04 04:16:00,37.1,32.7,29.00,NNW,338,8.7,15.7,84,0.00,,,0.00,WUHU216HW,2013-05-04 09:16:00,
2013-05-04 04:21:00,37.1,32.7,29.00,North,0,9.8,13.6,84,0.00,,,0.00,WUHU216HW,2013-05-04 09:21:00,
2013-05-04 04:26:00,37.1,32.9,29.00,North,0,6.9,12.5,85,0.00,,,0.00,WUHU216HW,2013-05-04 09:26:00,
2013-05-04 04:31:00,37.1,32.9,29.00,NW,315,10.5,12.1,85,0.00,,,0.00,WUHU216HW,2013-05-04 09:31:00,
2013-05-04 04:36:00,36.9,32.8,29.00,North,0,8.5,13.4,85,0.00,,,0.00,WUHU216HW,2013-05-04 09:36:00,
2013-05-04 04:41:00,36.9,33.0,29.00,North,0,12.1,14.5,86,0.00,,,0.00,WUHU216HW,2013-05-04 09:41:00,
2013-05-04 04:46:00,36.9,33.0,29.00,NNW,338,12.3,14.5,86,0.00,,,0.00,WUHU216HW,2013-05-04 09:46:00,
2013-05-04 04:51:00,36.9,33.3,28.99,North,0,9.8,12.8,87,0.00,,,0.00,WUHU216HW,2013-05-04 09:51:00,
2013-05-04 04:56:00,36.7,33.1,28.99,North,0,8.7,17.2,87,0.00,,,0.00,WUHU216HW,2013-05-04 09:56:00,
2013-05-04 05:01:00,36.7,32.9,29.00,NNW,338,8.9,17.2,86,0.00,,,0.00,WUHU216HW,2013-05-04 10:01:00,
2013-05-04 05:06:00,36.7,32.9,29.00,North,0,10.5,16.1,86,0.00,,,0.00,WUHU216HW,2013-05-04 10:06:00,
2013-05-04 05:11:00,36.7,33.1,29.01,North,0,17.9,17.9,87,0.00,,,0.00,WUHU216HW,2013-05-04 10:11:00,
2013-05-04 05:16:00,36.7,33.1,29.01,North,0,9.2,17.9,87,0.00,,,0.00,WUHU216HW,2013-05-04 10:16:00,
2013-05-04 05:21:00,36.7,33.1,29.01,North,0,13.4,15.2,87,0.00,,,0.00,WUHU216HW,2013-05-04 10:21:00,
2013-05-04 05:26:00,36.5,32.9,29.01,NNW,338,10.3,13.4,87,0.01,,,0.02,WUHU216HW,2013-05-04 10:26:00,
2013-05-04 05:31:00,36.5,32.9,29.01,NNW,338,9.2,13.0,87,0.01,,,0.02,WUHU216HW,2013-05-04 10:31:00,
2013-05-04 05:36:00,36.4,32.8,29.00,North,0,11.6,16.3,87,0.01,,,0.02,WUHU216HW,2013-05-04 10:36:00,
2013-05-04 05:41:00,36.4,32.8,29.00,North,0,15.0,16.3,87,0.01,,,0.02,WUHU216HW,2013-05-04 10:41:00,
2013-05-04 05:46:00,36.4,32.8,29.00,NNW,338,13.6,15.9,87,0.01,,,0.02,WUHU216HW,2013-05-04 10:46:00,
2013-05-04 05:51:00,36.2,32.6,29.00,NNW,338,10.7,15.9,87,0.01,,,0.02,WUHU216HW,2013-05-04 10:51:00,
2013-05-04 05:56:00,36.2,32.6,29.00,NNW,338,12.5,14.3,87,0.01,,,0.02,WUHU216HW,2013-05-04 10:56:00,
2013-05-04 06:01:00,36.4,32.8,29.00,North,0,13.6,15.0,87,0.01,,,0.02,WUHU216HW,2013-05-04 11:01:00,
2013-05-04 06:06:00,36.2,32.6,29.00,North,0,9.8,17.2,87,0.01,,,0.02,WUHU216HW,2013-05-04 11:06:00,
2013-05-04 06:11:00,36.4,32.8,29.00,NNW,338,10.3,17.2,87,0.01,,,0.02,WUHU216HW,2013-05-04 11:11:00,
2013-05-04 06:16:00,36.4,33.1,29.00,North,0,8.5,16.6,88,0.01,,,0.02,WUHU216HW,2013-05-04 11:16:00,
2013-05-04 06:21:00,36.4,33.1,29.00,North,0,13.2,16.6,88,0.00,,,0.02,WUHU216HW,2013-05-04 11:21:00,
2013-05-04 06:26:00,36.4,32.8,29.01,North,0,10.5,15.0,87,0.00,,,0.02,WUHU216HW,2013-05-04 11:26:00,
2013-05-04 06:31:00,36.2,32.6,29.01,North,0,6.9,14.8,87,0.01,,,0.02,WUHU216HW,2013-05-04 11:31:00,
2013-05-04 06:36:00,36.2,32.6,29.01,NNW,338,12.1,16.3,87,0.01,,,0.02,WUHU216HW,2013-05-04 11:36:00,
2013-05-04 06:41:00,36.2,32.6,29.01,NNW,338,5.4,16.3,87,0.01,,,0.02,WUHU216HW,2013-05-04 11:41:00,
2013-05-04 06:46:00,36.2,33.0,29.01,North,0,12.1,15.9,88,0.01,,,0.02,WUHU216HW,2013-05-04 11:46:00,
2013-05-04 06:51:00,36.4,33.1,29.01,NW,315,11.4,17.4,88,0.01,,,0.02,WUHU216HW,2013-05-04 11:51:00,
2013-05-04 06:56:00,36.2,33.0,29.01,NNW,338,8.7,17.4,88,0.01,,,0.02,WUHU216HW,2013-05-04 11:56:00,
2013-05-04 07:01:00,36.4,33.1,29.01,NNW,338,9.8,14.1,88,0.01,,,0.02,WUHU216HW,2013-05-04 12:01:00,
2013-05-04 07:06:00,36.4,33.1,29.02,NNW,338,13.9,13.9,88,0.02,,,0.04,WUHU216HW,2013-05-04 12:06:00,
2013-05-04 07:11:00,36.4,33.1,29.02,NNW,338,11.9,16.3,88,0.02,,,0.04,WUHU216HW,2013-05-04 12:11:00,
2013-05-04 07:17:00,36.2,33.0,29.02,NNW,338,8.9,16.3,88,0.02,,,0.04,WUHU216HW,2013-05-04 12:17:00,
2013-05-04 07:22:00,36.2,33.0,29.02,NNW,338,10.1,15.9,88,0.02,,,0.04,WUHU216HW,2013-05-04 12:22:00,
2013-05-04 07:27:00,36.0,32.8,29.01,NW,315,9.8,20.6,88,0.01,,,0.04,WUHU216HW,2013-05-04 12:27:00,
2013-05-04 07:32:00,36.2,33.0,29.02,NNW,338,11.9,15.9,88,0.01,,,0.04,WUHU216HW,2013-05-04 12:32:00,
2013-05-04 07:37:00,36.2,33.0,29.02,North,0,15.0,15.7,88,0.01,,,0.04,WUHU216HW,2013-05-04 12:37:00,
2013-05-04 07:42:00,36.2,33.0,29.02,NNW,338,12.5,15.0,88,0.01,,,0.04,WUHU216HW,2013-05-04 12:42:00,
2013-05-04 07:47:00,36.2,33.0,29.02,NNE,23,13.6,19.0,88,0.01,,,0.04,WUHU216HW,2013-05-04 12:47:00,
2013-05-04 07:52:00,36.4,33.1,29.02,NNW,338,9.2,19.0,88,0.01,,,0.04,WUHU216HW,2013-05-04 12:52:00,
2013-05-04 07:57:00,36.4,33.1,29.02,North,0,11.0,16.6,88,0.01,,,0.04,WUHU216HW,2013-05-04 12:57:00,
2013-05-04 08:02:00,36.4,33.1,29.02,North,0,13.4,16.3,88,0.01,,,0.04,WUHU216HW,2013-05-04 13:02:00,
2013-05-04 08:04:00,36.4,33.1,29.02,NNW,338,13.9,16.3,88,0.01,,,0.04,WUHU216HW,2013-05-04 13:04:00,
2013-05-04 08:09:00,36.4,33.1,29.02,North,0,10.5,16.3,88,0.00,,,0.04,WUHU216HW,2013-05-04 13:09:00,
2013-05-04 08:14:00,36.5,33.6,29.02,North,0,12.1,16.3,89,0.00,,,0.04,WUHU216HW,2013-05-04 13:14:00,
2013-05-04 08:19:00,36.5,33.6,29.01,North,0,18.6,19.7,89,0.00,,,0.04,WUHU216HW,2013-05-04 13:19:00,
2013-05-04 08:24:00,36.7,33.8,29.02,NNW,338,12.1,19.7,89,0.00,,,0.04,WUHU216HW,2013-05-04 13:24:00,
2013-05-04 08:29:00,36.5,33.6,29.02,North,0,9.8,18.8,89,0.00,,,0.04,WUHU216HW,2013-05-04 13:29:00,
2013-05-04 08:34:00,36.5,33.3,29.02,NNW,338,9.6,18.8,88,0.00,,,0.04,WUHU216HW,2013-05-04 13:34:00,
2013-05-04 08:39:00,36.7,33.8,29.02,NNW,338,15.0,18.3,89,0.00,,,0.04,WUHU216HW,2013-05-04 13:39:00,
2013-05-04 08:44:00,36.5,33.3,29.02,NNW,338,15.2,20.8,88,0.00,,,0.04,WUHU216HW,2013-05-04 13:44:00,
2013-05-04 08:49:00,36.5,33.6,29.02,North,0,18.6,20.8,89,0.00,,,0.04,WUHU216HW,2013-05-04 13:49:00,
2013-05-04 08:54:00,36.9,33.9,29.02,NNW,338,12.1,18.6,89,0.00,,,0.04,WUHU216HW,2013-05-04 13:54:00,
2013-05-04 08:59:00,36.9,33.9,29.02,NNW,338,15.2,15.7,89,0.00,,,0.04,WUHU216HW,2013-05-04 13:59:00,
2013-05-04 09:04:00,36.7,33.8,29.03,North,0,14.1,17.7,89,0.00,,,0.04,WUHU216HW,2013-05-04 14:04:00,
2013-05-04 09:09:00,36.7,33.8,29.03,North,0,18.6,18.6,89,0.00,,,0.04,WUHU216HW,2013-05-04 14:09:00,
2013-05-04 09:14:00,36.9,33.9,29.03,NNE,23,15.7,18.6,89,0.00,,,0.04,WUHU216HW,2013-05-04 14:14:00,
2013-05-04 09:18:00,37.1,34.1,29.03,NNW,338,14.8,17.2,89,0.00,,,0.04,WUHU216HW,2013-05-04 14:18:00,
2013-05-04 09:23:00,36.9,33.9,29.03,NNW,338,10.3,17.2,89,0.00,,,0.04,WUHU216HW,2013-05-04 14:23:00,
2013-05-04 09:28:00,37.1,34.1,29.03,North,0,13.9,16.1,89,0.00,,,0.04,WUHU216HW,2013-05-04 14:28:00,
2013-05-04 09:33:00,37.1,34.1,29.03,North,0,10.5,16.1,89,0.00,,,0.04,WUHU216HW,2013-05-04 14:33:00,
2013-05-04 09:38:00,37.1,33.9,29.03,NNW,338,9.2,15.2,88,0.00,,,0.04,WUHU216HW,2013-05-04 14:38:00,
2013-05-04 09:43:00,37.3,34.0,29.03,NNW,338,10.5,15.2,88,0.00,,,0.04,WUHU216HW,2013-05-04 14:43:00,
2013-05-04 09:48:00,37.3,34.0,29.03,NNW,338,10.3,17.7,88,0.00,,,0.04,WUHU216HW,2013-05-04 14:48:00,
2013-05-04 09:53:00,37.3,34.0,29.03,North,0,17.7,17.7,88,0.00,,,0.04,WUHU216HW,2013-05-04 14:53:00,
2013-05-04 09:58:00,37.4,34.5,29.03,North,0,10.7,17.7,89,0.00,,,0.04,WUHU216HW,2013-05-04 14:58:00,
2013-05-04 10:03:00,37.4,34.5,29.03,NNW,338,17.4,17.4,89,0.01,,,0.04,WUHU216HW,2013-05-04 15:03:00,
2013-05-04 10:08:00,37.4,34.5,29.04,NW,315,12.5,17.7,89,0.01,,,0.04,WUHU216HW,2013-05-04 15:08:00,
2013-05-04 10:13:00,37.4,34.5,29.04,North,0,13.4,17.7,89,0.01,,,0.04,WUHU216HW,2013-05-04 15:13:00,
2013-05-04 10:18:00,37.6,34.7,29.04,North,0,10.7,15.7,89,0.01,,,0.04,WUHU216HW,2013-05-04 15:18:00,
2013-05-04 10:23:00,37.8,34.8,29.04,North,0,19.0,19.0,89,0.01,,,0.04,WUHU216HW,2013-05-04 15:23:00,
2013-05-04 10:28:00,37.8,34.8,29.04,NE,45,11.2,19.0,89,0.01,,,0.04,WUHU216HW,2013-05-04 15:28:00,
2013-05-04 10:33:00,38.0,35.0,29.04,North,0,15.0,15.9,89,0.01,,,0.04,WUHU216HW,2013-05-04 15:33:00,
2013-05-04 10:38:00,38.2,35.2,29.04,NW,315,11.4,16.3,89,0.01,,,0.04,WUHU216HW,2013-05-04 15:38:00,
2013-05-04 10:43:00,38.5,35.6,29.04,NW,315,11.0,16.3,89,0.01,,,0.04,WUHU216HW,2013-05-04 15:43:00,
2013-05-04 10:49:00,38.5,35.3,29.04,NNW,338,16.3,17.2,88,0.01,,,0.04,WUHU216HW,2013-05-04 15:49:00,
2013-05-04 10:53:00,38.5,35.3,29.04,North,0,11.2,17.2,88,0.01,,,0.04,WUHU216HW,2013-05-04 15:53:00,
2013-05-04 10:58:00,38.5,35.3,29.04,North,0,20.4,20.4,88,0.01,,,0.04,WUHU216HW,2013-05-04 15:58:00,
2013-05-04 11:03:00,38.9,35.7,29.04,North,0,11.2,20.4,88,0.00,,,0.04,WUHU216HW,2013-05-04 16:03:00,
2013-05-04 11:08:00,39.1,35.8,29.04,North,0,13.6,15.7,88,0.00,,,0.04,WUHU216HW,2013-05-04 16:08:00,
2013-05-04 11:13:00,39.2,36.0,29.04,NNW,338,12.8,14.8,88,0.00,,,0.04,WUHU216HW,2013-05-04 16:13:00,
2013-05-04 11:18:00,38.9,35.3,29.05,North,0,19.7,19.7,87,0.00,,,0.04,WUHU216HW,2013-05-04 16:18:00,
2013-05-04 11:23:00,39.1,35.5,29.05,North,0,16.3,19.7,87,0.00,,,0.04,WUHU216HW,2013-05-04 16:23:00,
2013-05-04 11:28:00,39.1,35.5,29.06,NNE,23,15.0,20.1,87,0.00,,,0.04,WUHU216HW,2013-05-04 16:28:00,
2013-05-04 11:33:00,38.9,35.0,29.07,NE,45,11.4,20.1,86,0.00,,,0.04,WUHU216HW,2013-05-04 16:33:00,
2013-05-04 11:38:00,39.1,35.5,29.07,North,0,15.7,15.7,87,0.00,,,0.04,WUHU216HW,2013-05-04 16:38:00,
2013-05-04 11:43:00,39.2,35.6,29.07,North,0,13.4,15.7,87,0.00,,,0.04,WUHU216HW,2013-05-04 16:43:00,
2013-05-04 11:48:00,39.2,35.6,29.07,North,0,9.8,13.4,87,0.00,,,0.04,WUHU216HW,2013-05-04 16:48:00,
2013-05-04 11:53:00,39.2,35.6,29.07,North,0,8.3,13.4,87,0.00,,,0.04,WUHU216HW,2013-05-04 16:53:00,
2013-05-04 11:58:00,39.1,35.5,29.07,NNW,338,9.6,17.2,87,0.00,,,0.04,WUHU216HW,2013-05-04 16:58:00,
2013-05-04 12:03:00,39.1,35.2,29.07,NNE,23,13.4,17.2,86,0.00,,,0.04,WUHU216HW,2013-05-04 17:03:00,
2013-05-04 12:08:00,39.1,35.5,29.08,North,0,10.5,16.3,87,0.00,,,0.04,WUHU216HW,2013-05-04 17:08:00,
2013-05-04 12:13:00,39.1,35.5,29.08,NNW,338,16.8,19.2,87,0.00,,,0.04,WUHU216HW,2013-05-04 17:13:00,
2013-05-04 12:18:00,39.1,35.5,29.08,North,0,9.4,19.2,87,0.00,,,0.04,WUHU216HW,2013-05-04 17:18:00,
2013-05-04 12:23:00,39.1,35.5,29.07,North,0,14.3,17.2,87,0.00,,,0.04,WUHU216HW,2013-05-04 17:23:00,
2013-05-04 12:28:00,39.2,35.6,29.08,NNW,338,12.3,14.3,87,0.00,,,0.04,WUHU216HW,2013-05-04 17:28:00,
2013-05-04 12:33:00,39.2,35.6,29.07,North,0,11.4,13.0,87,0.00,,,0.04,WUHU216HW,2013-05-04 17:33:00,
2013-05-04 12:38:00,39.1,35.5,29.08,North,0,14.3,15.4,87,0.00,,,0.04,WUHU216HW,2013-05-04 17:38:00,
2013-05-04 12:43:00,39.2,35.6,29.08,North,0,15.4,15.4,87,0.00,,,0.04,WUHU216HW,2013-05-04 17:43:00,
2013-05-04 12:48:00,39.2,35.6,29.07,NNW,338,14.3,15.4,87,0.00,,,0.04,WUHU216HW,2013-05-04 17:48:00,
2013-05-04 12:53:00,39.4,35.8,29.07,North,0,11.9,14.3,87,0.00,,,0.04,WUHU216HW,2013-05-04 17:53:00,
2013-05-04 12:58:00,39.6,36.4,29.07,NNW,338,12.8,14.3,88,0.00,,,0.04,WUHU216HW,2013-05-04 17:58:00,
2013-05-04 13:03:00,39.8,36.5,29.07,NNE,23,14.3,17.0,88,0.00,,,0.04,WUHU216HW,2013-05-04 18:03:00,
2013-05-04 13:08:00,40.3,37.4,29.07,NNW,338,13.6,17.0,89,0.00,,,0.04,WUHU216HW,2013-05-04 18:08:00,
2013-05-04 13:13:00,40.5,37.2,29.06,NNW,338,9.2,14.1,88,0.00,,,0.04,WUHU216HW,2013-05-04 18:13:00,
2013-05-04 13:18:00,40.7,37.4,29.06,NNW,338,8.5,14.1,88,0.00,,,0.04,WUHU216HW,2013-05-04 18:18:00,
2013-05-04 13:23:00,40.5,37.2,29.06,NNW,338,13.4,13.4,88,0.00,,,0.04,WUHU216HW,2013-05-04 18:23:00,
2013-05-04 13:28:00,40.3,37.0,29.06,NNW,338,11.4,16.6,88,0.00,,,0.04,WUHU216HW,2013-05-04 18:28:00,
2013-05-04 13:33:00,40.3,37.0,29.05,NNW,338,13.9,16.6,88,0.00,,,0.04,WUHU216HW,2013-05-04 18:33:00,
2013-05-04 13:38:00,40.3,36.7,29.05,NNW,338,19.7,19.7,87,0.00,,,0.04,WUHU216HW,2013-05-04 18:38:00,
2013-05-04 13:43:00,40.7,37.4,29.06,North,0,17.9,19.7,88,0.00,,,0.04,WUHU216HW,2013-05-04 18:43:00,
2013-05-04 13:48:00,40.9,37.5,29.07,NW,315,11.2,17.9,88,0.00,,,0.04,WUHU216HW,2013-05-04 18:48:00,
2013-05-04 13:53:00,41.0,37.5,29.08,North,0,15.0,16.6,87,0.00,,,0.04,WUHU216HW,2013-05-04 18:53:00,
2013-05-04 13:58:00,41.0,37.5,29.07,North,0,12.1,15.4,87,0.00,,,0.04,WUHU216HW,2013-05-04 18:58:00,
2013-05-04 14:03:00,41.0,37.1,29.07,NE,45,15.2,15.4,86,0.00,,,0.04,WUHU216HW,2013-05-04 19:03:00,
2013-05-04 14:08:00,41.4,37.8,29.07,NNE,23,13.0,15.2,87,0.00,,,0.04,WUHU216HW,2013-05-04 19:08:00,
2013-05-04 14:13:00,41.4,37.4,29.08,NNW,338,10.7,14.8,86,0.00,,,0.04,WUHU216HW,2013-05-04 19:13:00,
2013-05-04 14:18:00,41.6,37.6,29.08,North,0,15.4,17.2,86,0.00,,,0.04,WUHU216HW,2013-05-04 19:18:00,
2013-05-04 14:23:00,41.6,37.6,29.08,North,0,15.9,17.2,86,0.00,,,0.04,WUHU216HW,2013-05-04 19:23:00,
2013-05-04 14:28:00,41.8,37.8,29.08,NW,315,8.3,15.9,86,0.00,,,0.04,WUHU216HW,2013-05-04 19:28:00,
2013-05-04 14:33:00,42.1,38.2,29.08,NNE,23,13.4,13.6,86,0.00,,,0.04,WUHU216HW,2013-05-04 19:33:00,
2013-05-04 14:38:00,42.1,38.2,29.08,NNE,23,14.5,14.5,86,0.00,,,0.04,WUHU216HW,2013-05-04 19:38:00,
2013-05-04 14:43:00,42.5,38.3,29.07,NNW,338,9.4,20.1,85,0.00,,,0.04,WUHU216HW,2013-05-04 19:43:00,
2013-05-04 14:48:00,42.3,38.1,29.07,North,0,17.2,20.4,85,0.00,,,0.04,WUHU216HW,2013-05-04 19:48:00,
2013-05-04 14:53:00,42.5,38.3,29.08,North,0,17.0,20.4,85,0.00,,,0.04,WUHU216HW,2013-05-04 19:53:00,
2013-05-04 14:58:00,42.7,38.4,29.07,North,0,15.7,17.2,85,0.00,,,0.04,WUHU216HW,2013-05-04 19:58:00,
2013-05-04 15:03:00,42.8,38.6,29.07,North,0,11.4,18.1,85,0.00,,,0.04,WUHU216HW,2013-05-04 20:03:00,
2013-05-04 15:08:00,42.8,38.6,29.07,North,0,13.6,18.1,85,0.00,,,0.04,WUHU216HW,2013-05-04 20:08:00,
2013-05-04 15:13:00,43.0,38.8,29.07,NE,45,13.0,15.0,85,0.00,,,0.04,WUHU216HW,2013-05-04 20:13:00,
2013-05-04 15:18:00,43.0,38.8,29.08,NE,45,10.5,13.9,85,0.00,,,0.04,WUHU216HW,2013-05-04 20:18:00,
2013-05-04 15:23:00,43.0,38.8,29.08,NNW,338,12.1,15.0,85,0.00,,,0.04,WUHU216HW,2013-05-04 20:23:00,
2013-05-04 15:28:00,43.2,39.0,29.08,North,0,13.2,15.0,85,0.00,,,0.04,WUHU216HW,2013-05-04 20:28:00,
2013-05-04 15:33:00,43.0,38.8,29.08,NW,315,15.2,15.2,85,0.00,,,0.04,WUHU216HW,2013-05-04 20:33:00,
2013-05-04 15:38:00,42.8,38.6,29.08,NNE,23,15.7,15.7,85,0.00,,,0.04,WUHU216HW,2013-05-04 20:38:00,
2013-05-04 15:43:00,42.8,38.6,29.08,North,0,14.3,16.6,85,0.00,,,0.04,WUHU216HW,2013-05-04 20:43:00,
2013-05-04 15:48:00,43.0,39.1,29.07,North,0,11.4,16.6,86,0.00,,,0.04,WUHU216HW,2013-05-04 20:48:00,
2013-05-04 15:53:00,43.4,39.4,29.07,NNW,338,11.9,11.9,86,0.00,,,0.04,WUHU216HW,2013-05-04 20:53:00,
2013-05-04 15:58:00,43.6,39.6,29.08,NNE,23,9.8,11.9,86,0.00,,,0.04,WUHU216HW,2013-05-04 20:58:00,
2013-05-04 16:03:00,43.7,39.5,29.08,NNW,338,18.6,18.6,85,0.00,,,0.04,WUHU216HW,2013-05-04 21:03:00,
2013-05-04 16:08:00,43.7,39.5,29.08,NNE,23,19.5,19.5,85,0.00,,,0.04,WUHU216HW,2013-05-04 21:08:00,
2013-05-04 16:13:00,43.6,39.3,29.08,North,0,11.2,19.5,85,0.00,,,0.04,WUHU216HW,2013-05-04 21:13:00,
2013-05-04 16:18:00,43.6,39.3,29.08,North,0,11.2,15.7,85,0.00,,,0.04,WUHU216HW,2013-05-04 21:18:00,
2013-05-04 16:23:00,43.6,39.3,29.08,North,0,10.5,15.7,85,0.00,,,0.04,WUHU216HW,2013-05-04 21:23:00,
2013-05-04 16:28:00,43.9,39.7,29.08,NNW,338,13.2,13.2,85,0.00,,,0.04,WUHU216HW,2013-05-04 21:28:00,
2013-05-04 16:33:00,43.9,39.7,29.08,NNW,338,13.4,15.2,85,0.00,,,0.04,WUHU216HW,2013-05-04 21:33:00,
2013-05-04 16:38:00,43.9,39.4,29.09,NW,315,10.5,15.2,84,0.00,,,0.04,WUHU216HW,2013-05-04 21:38:00,
2013-05-04 16:43:00,44.1,39.6,29.09,NNE,23,11.6,15.0,84,0.00,,,0.04,WUHU216HW,2013-05-04 21:43:00,
2013-05-04 16:48:00,44.3,39.8,29.09,NNW,338,9.6,14.5,84,0.00,,,0.04,WUHU216HW,2013-05-04 21:48:00,
2013-05-04 16:53:00,44.3,39.8,29.08,North,0,13.6,15.0,84,0.00,,,0.04,WUHU216HW,2013-05-04 21:53:00,
2013-05-04 16:58:00,44.3,39.8,29.09,NNW,338,7.6,15.4,84,0.00,,,0.04,WUHU216HW,2013-05-04 21:58:00,
2013-05-04 17:03:00,44.6,39.8,29.08,NNW,338,13.9,15.4,83,0.00,,,0.04,WUHU216HW,2013-05-04 22:03:00,
2013-05-04 17:08:00,44.6,40.2,29.09,NNW,338,9.4,14.3,84,0.00,,,0.04,WUHU216HW,2013-05-04 22:08:00,
2013-05-04 17:13:00,44.5,39.6,29.08,NW,315,11.2,13.4,83,0.00,,,0.04,WUHU216HW,2013-05-04 22:13:00,
2013-05-04 17:18:00,44.3,39.8,29.08,North,0,8.5,13.0,84,0.00,,,0.04,WUHU216HW,2013-05-04 22:18:00,
2013-05-04 17:23:00,44.3,39.8,29.09,NNW,338,8.1,15.7,84,0.00,,,0.04,WUHU216HW,2013-05-04 22:23:00,
2013-05-04 17:28:00,44.3,39.8,29.08,NNE,23,10.5,15.7,84,0.00,,,0.04,WUHU216HW,2013-05-04 22:28:00,
2013-05-04 17:33:00,44.5,40.0,29.09,North,0,12.1,13.0,84,0.00,,,0.04,WUHU216HW,2013-05-04 22:33:00,
2013-05-04 17:38:00,44.5,40.0,29.09,North,0,13.4,13.4,84,0.00,,,0.04,WUHU216HW,2013-05-04 22:38:00,
2013-05-04 17:43:00,44.6,40.2,29.09,NNW,338,8.5,13.4,84,0.00,,,0.04,WUHU216HW,2013-05-04 22:43:00,
2013-05-04 17:48:00,44.6,40.2,29.09,NNW,338,12.5,14.5,84,0.00,,,0.04,WUHU216HW,2013-05-04 22:48:00,
2013-05-04 17:53:00,44.3,39.8,29.09,NNW,338,10.7,14.5,84,0.00,,,0.04,WUHU216HW,2013-05-04 22:53:00,
2013-05-04 17:58:00,44.3,39.8,29.09,North,0,12.1,13.0,84,0.00,,,0.04,WUHU216HW,2013-05-04 22:58:00,
2013-05-04 18:03:00,44.3,40.1,29.10,NNW,338,9.2,13.0,85,0.00,,,0.04,WUHU216HW,2013-05-04 23:03:00,
2013-05-04 18:08:00,44.6,40.4,29.09,NNW,338,7.8,10.3,85,0.00,,,0.04,WUHU216HW,2013-05-04 23:08:00,
2013-05-04 18:13:00,44.5,40.0,29.09,NNW,338,8.3,11.4,84,0.00,,,0.04,WUHU216HW,2013-05-04 23:13:00,
2013-05-04 18:18:00,44.5,40.2,29.09,NNW,338,11.0,11.4,85,0.00,,,0.04,WUHU216HW,2013-05-04 23:18:00,
2013-05-04 18:23:00,44.3,40.1,29.10,North,0,12.1,12.1,85,0.00,,,0.04,WUHU216HW,2013-05-04 23:23:00,
2013-05-04 18:28:00,44.3,40.1,29.10,NNW,338,12.1,12.1,85,0.00,,,0.04,WUHU216HW,2013-05-04 23:28:00,
2013-05-04 18:33:00,44.1,39.9,29.10,North,0,17.0,17.0,85,0.00,,,0.04,WUHU216HW,2013-05-04 23:33:00,
2013-05-04 18:38:00,44.1,39.9,29.10,NNW,338,7.8,17.0,85,0.00,,,0.04,WUHU216HW,2013-05-04 23:38:00,
2013-05-04 18:43:00,44.1,39.9,29.10,NNW,338,9.2,12.8,85,0.00,,,0.04,WUHU216HW,2013-05-04 23:43:00,
2013-05-04 18:48:00,43.9,39.7,29.11,NNE,23,7.2,12.8,85,0.00,,,0.04,WUHU216HW,2013-05-04 23:48:00,
2013-05-04 18:53:00,43.9,39.7,29.10,NNW,338,7.6,11.9,85,0.00,,,0.04,WUHU216HW,2013-05-04 23:53:00,
2013-05-04 18:58:00,43.9,39.7,29.10,North,0,11.4,12.1,85,0.00,,,0.04,WUHU216HW,2013-05-04 23:58:00,
2013-05-04 19:03:00,43.9,40.0,29.10,NNW,338,10.7,13.4,86,0.00,,,0.04,WUHU216HW,2013-05-05 00:03:00,
2013-05-04 19:08:00,43.7,39.8,29.10,North,0,11.6,14.3,86,0.00,,,0.04,WUHU216HW,2013-05-05 00:08:00,
2013-05-04 19:13:00,43.6,39.6,29.11,NNW,338,8.7,14.3,86,0.00,,,0.04,WUHU216HW,2013-05-05 00:13:00,
2013-05-04 19:18:00,43.6,40.0,29.11,NNW,338,9.2,15.2,87,0.00,,,0.04,WUHU216HW,2013-05-05 00:18:00,
2013-05-04 19:23:00,43.4,39.8,29.11,NNW,338,14.8,15.2,87,0.00,,,0.04,WUHU216HW,2013-05-05 00:23:00,
2013-05-04 19:28:00,43.4,39.8,29.11,NNW,338,6.3,14.8,87,0.00,,,0.04,WUHU216HW,2013-05-05 00:28:00,
2013-05-04 19:33:00,43.2,39.6,29.11,NNW,338,8.7,14.5,87,0.00,,,0.04,WUHU216HW,2013-05-05 00:33:00,
2013-05-04 19:38:00,43.2,39.9,29.11,NNW,338,12.5,14.5,88,0.00,,,0.04,WUHU216HW,2013-05-05 00:38:00,
2013-05-04 19:43:00,43.0,39.4,29.12,NNW,338,8.3,12.5,87,0.00,,,0.04,WUHU216HW,2013-05-05 00:43:00,
2013-05-04 19:48:00,43.0,39.4,29.12,NNW,338,8.5,13.4,87,0.00,,,0.04,WUHU216HW,2013-05-05 00:48:00,
2013-05-04 19:53:00,42.8,39.3,29.12,NNE,23,5.1,13.4,87,0.00,,,0.04,WUHU216HW,2013-05-05 00:53:00,
2013-05-04 19:58:00,42.8,39.3,29.12,NNW,338,9.4,11.6,87,0.00,,,0.04,WUHU216HW,2013-05-05 00:58:00,
2013-05-04 20:03:00,42.8,39.3,29.12,NW,315,7.2,12.1,87,0.00,,,0.04,WUHU216HW,2013-05-05 01:03:00,
2013-05-04 20:08:00,42.8,39.3,29.12,NNW,338,5.1,12.1,87,0.00,,,0.04,WUHU216HW,2013-05-05 01:08:00,
2013-05-04 20:13:00,42.8,39.3,29.12,North,0,7.2,11.2,87,0.00,,,0.04,WUHU216HW,2013-05-05 01:13:00,
2013-05-04 20:18:00,42.8,39.3,29.12,North,0,8.5,11.2,87,0.00,,,0.04,WUHU216HW,2013-05-05 01:18:00,
2013-05-04 20:23:00,42.8,39.3,29.12,NNW,338,9.8,10.7,87,0.00,,,0.04,WUHU216HW,2013-05-05 01:23:00,
2013-05-04 20:28:00,42.7,39.1,29.12,NNW,338,8.3,12.3,87,0.00,,,0.04,WUHU216HW,2013-05-05 01:28:00,
2013-05-04 20:33:00,42.8,39.5,29.12,North,0,7.8,12.3,88,0.00,,,0.04,WUHU216HW,2013-05-05 01:33:00,
2013-05-04 20:38:00,42.7,39.3,29.12,North,0,9.6,16.3,88,0.00,,,0.04,WUHU216HW,2013-05-05 01:38:00,
2013-05-04 20:43:00,42.7,39.3,29.12,NW,315,9.2,16.3,88,0.00,,,0.04,WUHU216HW,2013-05-05 01:43:00,
2013-05-04 20:48:00,42.7,39.1,29.12,NNW,338,9.6,10.5,87,0.00,,,0.04,WUHU216HW,2013-05-05 01:48:00,
2013-05-04 20:53:00,42.7,39.1,29.12,NNW,338,12.5,12.5,87,0.00,,,0.04,WUHU216HW,2013-05-05 01:53:00,
2013-05-04 20:58:00,42.7,39.1,29.12,NNW,338,6.7,12.5,87,0.00,,,0.04,WUHU216HW,2013-05-05 01:58:00,
2013-05-04 21:03:00,42.7,39.3,29.12,NNW,338,11.2,13.4,88,0.00,,,0.04,WUHU216HW,2013-05-05 02:03:00,
2013-05-04 21:08:00,42.7,39.3,29.12,NNW,338,8.7,13.4,88,0.00,,,0.04,WUHU216HW,2013-05-05 02:08:00,
2013-05-04 21:13:00,42.7,39.3,29.12,NNW,338,13.0,13.0,88,0.00,,,0.04,WUHU216HW,2013-05-05 02:13:00,
2013-05-04 21:18:00,42.7,39.1,29.12,NNW,338,9.8,13.0,87,0.00,,,0.04,WUHU216HW,2013-05-05 02:18:00,
2013-05-04 21:23:00,42.7,39.1,29.13,NNW,338,8.5,11.4,87,0.00,,,0.04,WUHU216HW,2013-05-05 02:23:00,
2013-05-04 21:28:00,42.5,38.9,29.14,North,0,12.8,12.8,87,0.00,,,0.04,WUHU216HW,2013-05-05 02:28:00,
2013-05-04 21:33:00,42.7,39.1,29.14,North,0,7.6,12.8,87,0.00,,,0.04,WUHU216HW,2013-05-05 02:33:00,
2013-05-04 21:38:00,42.7,39.1,29.14,NNW,338,6.0,11.9,87,0.00,,,0.04,WUHU216HW,2013-05-05 02:38:00,
2013-05-04 21:43:00,42.7,39.1,29.13,NW,315,6.7,11.4,87,0.00,,,0.04,WUHU216HW,2013-05-05 02:43:00,
2013-05-04 21:48:00,42.7,39.1,29.14,NNW,338,7.8,10.5,87,0.00,,,0.04,WUHU216HW,2013-05-05 02:48:00,
2013-05-04 21:53:00,42.7,39.1,29.13,North,0,9.8,10.1,87,0.00,,,0.04,WUHU216HW,2013-05-05 02:53:00,
2013-05-04 21:58:00,42.7,39.1,29.13,NW,315,7.6,10.1,87,0.00,,,0.04,WUHU216HW,2013-05-05 02:58:00,
2013-05-04 22:03:00,42.7,39.1,29.14,NNW,338,8.5,10.5,87,0.00,,,0.04,WUHU216HW,2013-05-05 03:03:00,
2013-05-04 22:08:00,42.7,39.1,29.14,NW,315,13.2,13.2,87,0.00,,,0.04,WUHU216HW,2013-05-05 03:08:00,
2013-05-04 22:13:00,42.7,39.1,29.14,NNW,338,10.5,13.2,87,0.00,,,0.04,WUHU216HW,2013-05-05 03:13:00,
2013-05-04 22:18:00,42.5,38.9,29.15,NNW,338,9.4,11.4,87,0.00,,,0.04,WUHU216HW,2013-05-05 03:18:00,
2013-05-04 22:23:00,42.5,38.9,29.15,North,0,11.4,13.9,87,0.00,,,0.04,WUHU216HW,2013-05-05 03:23:00,
2013-05-04 22:28:00,42.5,38.9,29.15,NNW,338,7.2,13.9,87,0.00,,,0.04,WUHU216HW,2013-05-05 03:28:00,
2013-05-04 22:33:00,42.5,38.9,29.15,NNW,338,5.1,7.8,87,0.00,,,0.04,WUHU216HW,2013-05-05 03:33:00,
2013-05-04 22:38:00,42.5,38.9,29.15,NNW,338,7.4,7.8,87,0.00,,,0.04,WUHU216HW,2013-05-05 03:38:00,
2013-05-04 22:43:00,42.5,38.9,29.15,North,0,8.5,8.5,87,0.00,,,0.04,WUHU216HW,2013-05-05 03:43:00,
2013-05-04 22:48:00,42.5,38.9,29.15,NNW,338,8.1,9.2,87,0.00,,,0.04,WUHU216HW,2013-05-05 03:48:00,
2013-05-04 22:53:00,42.5,38.9,29.15,North,0,5.8,12.8,87,0.00,,,0.04,WUHU216HW,2013-05-05 03:53:00,
2013-05-04 22:58:00,42.5,38.9,29.15,NNW,338,5.6,12.8,87,0.00,,,0.04,WUHU216HW,2013-05-05 03:58:00,
2013-05-04 23:01:00,42.5,38.9,29.15,North,0,9.4,9.4,87,0.00,,,0.04,WUHU216HW,2013-05-05 04:01:00,
2013-05-04 23:06:00,42.5,38.9,29.15,North,0,9.2,9.4,87,0.00,,,0.04,WUHU216HW,2013-05-05 04:06:00,
2013-05-04 23:11:00,42.5,38.9,29.15,WNW,293,8.3,9.2,87,0.00,,,0.04,WUHU216HW,2013-05-05 04:11:00,
2013-05-04 23:16:00,42.5,38.9,29.14,NNE,23,9.8,9.8,87,0.00,,,0.04,WUHU216HW,2013-05-05 04:16:00,
2013-05-04 23:21:00,42.5,38.9,29.14,NNW,338,6.9,9.8,87,0.00,,,0.04,WUHU216HW,2013-05-05 04:21:00,
2013-05-04 23:26:00,42.5,38.9,29.14,NNW,338,8.1,9.2,87,0.00,,,0.04,WUHU216HW,2013-05-05 04:26:00,
2013-05-04 23:31:00,42.5,38.9,29.14,NNW,338,8.3,9.6,87,0.00,,,0.04,WUHU216HW,2013-05-05 04:31:00,
2013-05-04 23:36:00,42.5,38.9,29.14,NNW,338,6.3,11.2,87,0.00,,,0.04,WUHU216HW,2013-05-05 04:36:00,
2013-05-04 23:41:00,42.3,38.7,29.14,NNW,338,8.7,11.2,87,0.00,,,0.04,WUHU216HW,2013-05-05 04:41:00,
2013-05-04 23:46:00,42.5,38.9,29.14,NNW,338,6.3,10.3,87,0.00,,,0.04,WUHU216HW,2013-05-05 04:46:00,
2013-05-04 23:51:00,42.3,38.7,29.14,North,0,5.8,9.2,87,0.00,,,0.04,WUHU216HW,2013-05-05 04:51:00,
2013-05-04 23:56:00,42.3,38.7,29.14,NNW,338,5.6,8.3,87,0.00,,,0.04,WUHU216HW,2013-05-05 04:56:00,